Wind_Speed
6 6 6 6 6 6 6 7 7 8 8 9 9 9 10 10 10 10 10 10 9 8 6 6 6 5 4 4 4 4 3 3 4 4 4 4 5 5 5 5 5 6 6
5 5 6 6 6 5 6 6 7 8 8 8 8 8 9 10 10 10 10 9 9 8 7 6 6 6 6 5 4 4 3 4 4 4 5 5 5 5 5 5 5 6 6
6 6 6 6 6 6 6 6 6 7 8 8 8 8 9 9 10 10 10 9 9 9 8 7 7 7 6 6 5 4 4 5 5 5 5 6 6 6 7 7 7 7 7
5 5 6 6 6 6 6 6 6 7 7 8 8 9 10 10 11 10 10 10 10 10 9 8 8 7 7 7 6 5 5 6 6 6 6 6 7 8 8 8 8 8 8
5 5 6 6 5 6 6 5 6 6 7 7 8 9 9 10 10 10 10 11 11 12 11 10 9 8 7 7 7 6 6 7 7 7 7 7 8 8 8 8 8 9 9
4 5 5 6 6 6 6 5 5 6 7 7 8 9 9 10 10 10 11 12 12 12 12 11 10 9 8 8 8 8 8 8 8 8 8 8 8 8 9 9 9 10 10
4 4 4 5 5 5 5 5 5 6 6 7 8 9 9 10 11 11 12 12 13 12 12 12 11 10 9 9 9 10 10 9 9 9 9 9 9 9 10 10 11 11 12
5 5 4 4 5 5 5 5 6 7 7 8 8 9 10 10 11 12 12 12 13 14 13 13 12 11 10 10 10 10 10 10 10 10 9 10 10 10 10 10 11 11 12
7 6 5 5 5 6 6 6 6 7 8 9 9 10 11 11 12 12 12 12 13 14 14 14 12 11 11 11 11 10 10 10 10 10 10 11 11 11 11 11 11 12 12
8 7 7 7 7 7 8 8 8 8 9 10 10 10 10 11 12 12 13 13 13 14 13 13 13 12 11 11 10 10 11 11 10 10 10 11 11 12 12 12 13 13 12
9 8 9 9 9 9 9 10 10 10 10 10 11 11 12 12 13 12 13 13 14 14 14 14 13 13 12 11 11 11 11 10 10 11 11 12 12 13 13 13 13 14 14
10 9 9 9 10 10 10 11 11 11 11 11 12 12 13 13 13 13 14 14 14 14 14 14 14 13 13 12 11 11 11 11 11 11 12 12 13 14 14 13 14 15 15
11 11 11 11 11 11 11 12 12 12 12 12 13 14 14 14 13 14 15 15 15 15 15 15 14 14 13 13 12 12 12 12 12 12 12 13 13 14 14 14 15 15 16
13 13 13 13 13 12 12 12 12 13 13 13 14 15 15 15 15 15 15 15 15 16 16 15 15 15 14 14 13 13 13 13 13 13 14 14 14 15 15 16 16 16 16
15 15 14 14 14 14 14 14 14 14 15 16 16 16 16 16 16 16 16 17 17 17 16 16 15 15 15 14 14 14 15 15 14 15 15 15 15 15 16 17 17 17 17
16 16 16 16 16 16 15 16 16 16 16 17 18 17 17 17 17 17 17 18 18 17 17 17 16 16 16 16 15 16 16 16 16 16 16 16 17 17 17 17 18 18 19
16 17 18 18 18 18 18 18 18 18 18 19 19 19 19 19 19 19 19 18 18 18 18 18 18 18 18 18 18 18 18 17 18 18 17 18 17 17 18 18 18 19 20
18 18 18 18 19 20 20 19 19 19 19 19 20 20 20 20 20 20 19 19 19 18 18 18 19 19 19 19 19 20 19 19 19 19 19 19 19 19 19 19 20 21 21
20 19 19 20 20 21 20 20 19 20 20 20 21 21 21 21 21 20 20 19 19 19 19 19 19 19 20 21 21 21 21 20 20 19 20 20 20 20 20 21 21 22 23
21 21 21 20 21 21 21 22 21 21 22 22 22 22 22 21 21 20 20 20 20 20 20 20 20 20 21 22 22 21 21 21 21 21 21 21 21 22 22 22 22 23 24
23 23 23 22 21 22 22 23 23 23 23 23 23 23 23 21 21 21 21 21 20 21 21 21 22 22 22 22 22 22 22 22 22 22 23 23 23 24 24 24 24 24 25
23 23 23 23 23 23 23 23 23 24 24 24 24 24 23 22 22 22 22 21 21 22 22 22 22 22 23 23 23 23 23 23 23 23 24 24 24 25 25 25 25 25 26
23 23 22 22 23 23 23 23 23 23 23 24 24 24 24 23 23 23 23 22 22 23 23 23 23 24 24 24 24 24 24 24 24 24 25 25 25 26 26 26 25 26 26
24 24 24 23 23 23 23 23 23 23 23 23 22 23 23 24 24 24 24 23 24 24 24 25 25 25 25 25 25 25 25 25 25 25 25 25 26 26 27 27 26 26 26
25 24 24 23 23 23 24 24 23 23 22 22 21 21 22 23 24 24 24 24 24 24 25 25 25 26 25 25 26 26 26 25 24 24 25 25 26 27 27 27 27 27 27
26 26 25 25 24 24 24 24 24 23 23 23 23 23 23 24 24 24 25 25 25 25 25 25 26 26 25 25 25 25 25 25 24 24 25 26 26 26 27 27 27 26 27
Wind_Direction
39 37 32 30 31 32 30 29 29 30 30 34 38 37 34 33 30 27 24 25 24 22 17 11 0 353 343 331 329 317 297 285 265 261 259 261 266 270 273 272 273 277 282
23 18 21 24 22 21 21 23 32 30 27 30 30 30 30 28 25 23 20 16 13 12 9 358 348 343 340 332 323 315 304 296 277 264 261 266 271 268 271 273 275 279 282
14 14 11 12 13 11 14 20 21 22 25 27 26 23 23 21 19 18 17 13 7 2 354 350 343 337 333 326 319 310 302 296 280 270 267 271 275 274 276 274 276 278 282
9 9 4 2 3 7 9 10 10 15 18 21 22 20 18 15 13 14 13 10 3 359 355 347 342 335 329 326 323 313 307 295 283 273 269 270 277 278 280 277 279 279 280
1 358 352 357 357 359 356 358 1 7 7 8 10 10 10 10 9 9 8 6 360 356 354 347 343 339 328 316 311 307 302 294 285 277 273 274 279 278 281 282 284 283 279
333 341 341 349 350 351 347 347 349 353 356 356 357 360 1 2 1 0 359 357 356 354 351 346 342 338 328 321 314 308 303 297 291 280 276 280 280 277 277 278 282 284 285
306 314 322 336 340 340 340 338 340 342 347 348 347 348 349 350 349 350 349 350 351 349 346 343 340 334 329 321 318 312 306 300 294 287 278 280 281 279 278 278 281 282 282
286 298 307 317 324 323 322 322 327 331 334 337 338 340 341 339 343 345 343 344 344 342 342 343 338 330 324 319 313 311 307 301 291 288 282 284 287 285 282 280 279 280 280
273 281 293 299 304 309 312 313 314 318 319 323 325 329 334 337 337 338 338 337 337 337 336 336 336 332 324 318 313 310 308 301 293 288 285 287 289 287 283 280 280 279 278
268 274 280 283 291 294 297 301 305 308 312 316 317 321 323 326 330 332 330 329 331 332 332 333 334 332 329 324 318 314 310 303 300 297 292 289 291 288 282 279 279 278 281
266 268 273 278 283 286 287 292 300 304 306 311 315 315 317 319 321 323 327 325 326 328 331 332 331 328 324 322 317 312 314 310 304 300 296 291 290 291 287 281 279 279 280
260 263 268 274 281 284 285 290 293 296 302 306 310 312 313 315 318 316 320 323 322 323 325 325 328 327 324 319 315 312 309 307 304 299 295 294 293 291 291 286 281 282 284
259 262 267 274 281 283 283 287 290 294 299 304 307 310 310 310 314 314 316 319 320 322 323 321 321 320 317 314 312 310 307 305 301 297 293 292 292 291 291 290 288 285 283
256 260 265 272 279 281 282 282 287 292 296 300 302 305 306 306 307 309 311 314 316 317 319 319 318 317 317 314 310 307 305 303 302 298 293 293 292 289 289 289 289 287 285
253 255 262 269 274 276 278 279 284 291 294 296 297 299 301 302 303 303 305 307 309 312 313 316 315 313 314 314 311 306 300 300 299 297 294 290 292 291 290 289 290 289 287
251 253 259 265 269 275 280 282 285 289 293 294 295 298 300 302 301 299 300 303 305 307 309 310 310 310 310 311 309 308 304 300 297 296 293 290 289 291 292 291 291 293 293
252 256 259 262 267 273 278 281 281 285 288 291 296 300 299 298 298 296 296 299 303 305 306 307 307 306 306 307 305 304 304 300 297 295 293 291 288 288 288 289 292 293 294
250 255 257 261 266 271 276 280 280 283 288 292 294 297 297 295 294 294 294 296 299 301 302 303 304 306 305 305 305 303 301 298 297 295 292 291 287 287 289 291 292 292 294
250 253 258 261 264 269 272 276 280 282 285 290 293 295 297 296 293 292 294 295 296 298 300 301 301 303 303 302 301 299 299 300 298 295 295 295 295 293 292 292 292 292 294
253 256 258 260 263 267 272 276 278 280 282 287 291 293 295 295 292 293 293 294 295 297 298 298 298 299 300 299 298 297 298 298 298 297 297 297 297 296 295 294 293 293 293
253 256 258 260 262 265 269 273 275 279 281 285 288 289 292 292 291 292 294 294 293 295 296 298 298 298 299 299 298 298 299 299 298 296 296 297 296 295 295 295 294 294 294
256 258 259 260 262 264 267 271 274 277 280 283 284 286 287 287 289 291 293 295 296 295 295 297 298 298 298 299 299 299 299 298 297 296 296 296 295 296 296 295 294 295 296
257 258 260 262 263 264 267 269 272 276 280 282 283 283 283 284 287 289 291 293 295 295 295 295 296 297 297 298 299 300 299 297 296 296 296 297 297 298 298 298 296 295 297
256 259 261 262 263 264 266 270 272 275 278 280 282 283 282 283 286 287 289 291 292 293 294 295 297 298 296 297 297 299 298 295 294 295 296 296 296 296 297 297 297 296 298
257 258 259 261 261 262 265 268 271 275 277 278 281 283 284 284 285 287 288 289 290 291 292 294 296 296 296 297 297 297 297 295 293 293 294 295 296 296 295 296 297 297 297
256 257 259 260 262 264 267 269 271 274 276 278 280 282 283 283 283 284 286 286 287 289 290 293 295 296 297 298 297 297 296 294 291 291 293 295 296 295 294 294 296 297 298
Height
5922 5921 5920 5918 5918 5917 5916 5914 5913 5912 5910 5909 5908 5907 5905 5904 5902 5901 5899 5898 5897 5896 5895 5894 5894 5893 5892 5891 5890 5890 5889 5889 5889 5889 5889 5889 5888 5888 5888 5888 5887 5887 5887
5923 5922 5920 5920 5918 5917 5916 5915 5914 5913 5911 5910 5909 5908 5906 5905 5903 5902 5900 5899 5898 5896 5895 5894 5893 5892 5891 5890 5890 5889 5889 5888 5888 5888 5888 5888 5888 5887 5887 5886 5886 5886 5885
5923 5922 5921 5920 5919 5918 5917 5916 5915 5914 5912 5911 5910 5909 5907 5906 5904 5902 5901 5899 5898 5896 5895 5894 5893 5891 5891 5890 5889 5888 5888 5888 5887 5887 5887 5887 5886 5886 5885 5885 5884 5884 5883
5923 5922 5922 5921 5919 5919 5917 5916 5915 5914 5913 5912 5911 5909 5908 5906 5905 5903 5901 5900 5898 5896 5895 5893 5892 5891 5890 5889 5888 5887 5887 5886 5886 5885 5885 5885 5885 5884 5883 5883 5882 5882 5881
5923 5922 5922 5921 5920 5919 5918 5917 5916 5915 5914 5912 5911 5910 5908 5907 5905 5903 5901 5900 5898 5896 5894 5892 5891 5889 5888 5888 5886 5886 5885 5885 5884 5883 5883 5883 5882 5881 5881 5881 5880 5879 5879
5923 5922 5921 5921 5920 5919 5918 5917 5916 5915 5914 5912 5911 5910 5908 5907 5905 5903 5901 5899 5898 5896 5894 5892 5890 5888 5887 5886 5885 5884 5884 5883 5882 5881 5881 5880 5880 5879 5879 5878 5877 5877 5876
5922 5921 5921 5920 5919 5919 5917 5917 5916 5915 5914 5912 5911 5910 5908 5907 5905 5903 5901 5899 5897 5895 5893 5891 5889 5887 5886 5885 5884 5883 5882 5881 5880 5879 5878 5878 5877 5877 5876 5876 5875 5874 5874
5921 5921 5920 5920 5919 5918 5917 5916 5915 5914 5913 5912 5911 5909 5908 5906 5904 5902 5900 5899 5897 5894 5892 5890 5888 5886 5884 5883 5882 5881 5880 5879 5878 5877 5876 5875 5875 5874 5873 5873 5872 5872 5871
5919 5919 5919 5919 5918 5917 5916 5915 5914 5913 5912 5911 5910 5909 5907 5905 5904 5902 5900 5898 5895 5893 5891 5889 5886 5884 5883 5881 5880 5879 5878 5877 5876 5875 5874 5873 5872 5871 5870 5870 5870 5869 5868
5918 5917 5917 5917 5917 5916 5915 5914 5913 5912 5911 5910 5909 5908 5906 5904 5903 5901 5899 5896 5894 5892 5890 5887 5885 5883 5881 5879 5878 5877 5876 5874 5873 5872 5871 5870 5870 5869 5868 5867 5867 5866 5865
5915 5915 5915 5915 5915 5914 5913 5912 5911 5910 5909 5908 5907 5906 5904 5903 5901 5899 5897 5895 5893 5891 5888 5886 5884 5881 5879 5878 5876 5875 5873 5872 5871 5869 5869 5867 5866 5865 5864 5864 5863 5862 5861
5913 5913 5913 5913 5912 5912 5911 5910 5909 5908 5907 5906 5905 5904 5902 5901 5899 5897 5895 5893 5891 5889 5886 5884 5882 5879 5877 5875 5874 5872 5871 5869 5868 5867 5865 5864 5863 5862 5861 5860 5859 5858 5858
5910 5910 5910 5910 5910 5910 5909 5908 5907 5906 5905 5904 5903 5901 5900 5898 5896 5895 5893 5891 5889 5886 5884 5882 5879 5877 5875 5873 5871 5870 5868 5866 5865 5863 5862 5861 5860 5859 5858 5856 5855 5854 5853
5907 5907 5907 5907 5907 5907 5906 5906 5905 5904 5902 5901 5900 5898 5896 5895 5893 5892 5890 5888 5886 5884 5881 5879 5877 5874 5872 5870 5868 5867 5865 5863 5862 5860 5859 5857 5856 5855 5854 5853 5851 5850 5849
5903 5903 5904 5904 5904 5904 5903 5903 5902 5900 5899 5898 5897 5895 5894 5892 5890 5889 5887 5885 5883 5881 5879 5876 5874 5871 5869 5867 5865 5864 5862 5860 5858 5857 5855 5854 5852 5851 5850 5849 5847 5846 5844
5898 5899 5900 5900 5900 5900 5899 5899 5898 5897 5896 5894 5893 5892 5890 5888 5887 5885 5883 5881 5880 5877 5875 5873 5871 5868 5866 5864 5862 5860 5858 5856 5854 5852 5851 5850 5848 5847 5845 5844 5843 5842 5840
5894 5895 5895 5895 5895 5895 5895 5894 5893 5893 5892 5890 5889 5887 5886 5884 5883 5881 5879 5877 5875 5873 5871 5869 5867 5865 5862 5860 5858 5856 5854 5852 5850 5848 5846 5845 5844 5842 5841 5839 5838 5837 5835
5889 5890 5890 5890 5891 5891 5890 5889 5889 5888 5887 5886 5884 5883 5881 5880 5878 5877 5875 5873 5871 5869 5867 5865 5863 5861 5858 5856 5854 5852 5849 5847 5845 5844 5842 5840 5838 5837 5836 5834 5833 5832 5830
5884 5885 5885 5886 5886 5886 5885 5884 5884 5883 5882 5881 5879 5878 5876 5875 5873 5872 5870 5868 5866 5864 5862 5860 5858 5856 5854 5852 5849 5847 5845 5843 5841 5839 5837 5835 5833 5832 5830 5829 5827 5825 5823
5879 5879 5879 5880 5880 5880 5880 5879 5879 5878 5877 5876 5874 5873 5871 5870 5868 5867 5865 5863 5861 5859 5857 5855 5853 5851 5849 5847 5844 5842 5840 5838 5836 5834 5832 5830 5828 5826 5824 5822 5820 5818 5817
5873 5873 5874 5874 5874 5874 5874 5874 5873 5872 5871 5870 5869 5867 5866 5864 5863 5861 5859 5857 5856 5854 5852 5850 5848 5846 5844 5841 5839 5836 5834 5832 5830 5828 5826 5824 5822 5820 5818 5816 5814 5812 5809
5867 5867 5867 5868 5868 5868 5869 5868 5867 5866 5865 5864 5863 5862 5860 5859 5857 5856 5854 5852 5850 5849 5847 5845 5842 5840 5838 5835 5833 5830 5828 5826 5824 5822 5820 5818 5816 5814 5811 5809 5807 5805 5802
5860 5861 5861 5862 5862 5862 5862 5862 5861 5860 5859 5857 5856 5855 5854 5853 5851 5850 5848 5847 5845 5842 5840 5838 5836 5834 5831 5829 5827 5824 5822 5820 5818 5815 5813 5811 5809 5807 5805 5803 5800 5798 5795
5853 5854 5855 5855 5855 5855 5855 5855 5855 5853 5852 5851 5849 5848 5847 5846 5845 5843 5842 5840 5838 5836 5834 5832 5829 5827 5825 5823 5820 5818 5815 5813 5811 5809 5806 5804 5802 5800 5797 5795 5793 5790 5788
5846 5847 5848 5848 5848 5848 5848 5848 5848 5847 5846 5844 5843 5842 5841 5839 5838 5836 5835 5833 5831 5829 5828 5825 5823 5821 5819 5816 5814 5811 5808 5805 5803 5802 5800 5798 5795 5793 5790 5788 5785 5783 5780
5839 5839 5840 5840 5841 5841 5841 5841 5841 5840 5839 5838 5837 5836 5834 5832 5831 5829 5828 5826 5824 5823 5821 5819 5817 5814 5812 5809 5807 5804 5801 5798 5796 5794 5792 5790 5788 5785 5783 5780 5778 5775 5773